TimeEST,TemperatureF,Dew PointF,Humidity,Sea Level PressureIn,VisibilityMPH,Wind Direction,Wind SpeedMPH,Gust SpeedMPH,PrecipitationIn,Events,Conditions,WindDirDegrees,DateUTC
12:52 AM,25.0,16.0,69,30.17,10.0,North,4.6,-,N/A,,Overcast,360,2012-12-12 05:52:00
1:52 AM,24.1,15.1,69,30.20,10.0,NW,4.6,-,N/A,,Overcast,320,2012-12-12 06:52:00
2:52 AM,24.1,15.1,69,30.21,10.0,WNW,3.5,-,N/A,,Overcast,300,2012-12-12 07:52:00
3:52 AM,24.1,15.1,69,30.23,10.0,North,5.8,-,N/A,,Overcast,350,2012-12-12 08:52:00
4:52 AM,24.1,16.0,71,30.25,10.0,Calm,Calm,-,N/A,,Overcast,0,2012-12-12 09:52:00
5:52 AM,24.1,16.0,71,30.27,10.0,Calm,Calm,-,N/A,,Overcast,0,2012-12-12 10:52:00
6:52 AM,25.0,17.1,72,30.29,10.0,Calm,Calm,-,N/A,,Overcast,0,2012-12-12 11:52:00
7:52 AM,21.9,18.0,85,30.32,10.0,Calm,Calm,-,N/A,,Mostly Cloudy,0,2012-12-12 12:52:00
8:01 AM,23.0,17.6,80,30.25,10.0,Calm,Calm,-,N/A,,Partly Cloudy,0,2012-12-12 13:01:00
8:52 AM,25.0,18.0,75,30.32,10.0,Calm,Calm,-,N/A,,Clear,0,2012-12-12 13:52:00
9:52 AM,28.0,16.0,61,30.32,10.0,Calm,Calm,-,N/A,,Clear,0,2012-12-12 14:52:00
10:52 AM,30.9,17.1,57,30.32,10.0,Variable,6.9,-,N/A,,Partly Cloudy,0,2012-12-12 15:52:00
11:52 AM,33.1,17.1,52,30.29,10.0,Variable,3.5,-,N/A,,Clear,0,2012-12-12 16:52:00
12:52 PM,35.1,18.0,50,30.28,10.0,NNW,8.1,-,N/A,,Clear,330,2012-12-12 17:52:00
1:52 PM,34.0,17.1,50,30.29,10.0,Variable,6.9,-,N/A,,Clear,0,2012-12-12 18:52:00
2:52 PM,34.0,18.0,52,30.31,10.0,Calm,Calm,-,N/A,,Mostly Cloudy,0,2012-12-12 19:52:00
3:52 PM,33.1,18.0,54,30.34,10.0,WSW,3.5,-,N/A,,Overcast,250,2012-12-12 20:52:00
4:52 PM,30.9,19.0,61,30.35,10.0,Calm,Calm,-,N/A,,Overcast,0,2012-12-12 21:52:00
5:52 PM,27.0,19.9,75,30.37,10.0,Calm,Calm,-,N/A,,Mostly Cloudy,0,2012-12-12 22:52:00
6:52 PM,25.0,19.9,81,30.36,10.0,Calm,Calm,-,N/A,,Clear,0,2012-12-12 23:52:00
7:52 PM,24.1,19.9,84,30.38,10.0,Calm,Calm,-,N/A,,Scattered Clouds,0,2012-12-13 00:52:00
8:52 PM,19.0,16.0,88,30.38,10.0,Calm,Calm,-,N/A,,Mostly Cloudy,0,2012-12-13 01:52:00
9:52 PM,21.0,18.0,88,30.38,10.0,Calm,Calm,-,N/A,,Mostly Cloudy,0,2012-12-13 02:52:00
10:52 PM,17.1,14.0,88,30.39,10.0,Calm,Calm,-,N/A,,Clear,0,2012-12-13 03:52:00
11:52 PM,21.0,18.0,88,30.38,6.0,Calm,Calm,-,0.00,Snow,Light Snow,0,2012-12-13 04:52:00